Home   Weather   Mount Pearl   Past weeks

Flag for Canada Past Weather in Mount Pearl, Newfoundland and Labrador, Canada — Yesterday and Last 2 Weeks

Now
34 °F

Partly sunny.


Feels Like: 21 °F
Forecast: 29 / 37 °F
Wind: 24 mph from West

Location: St. John's

Current Time: Dec 9, 2016 at 2:07:20 pm

Latest Report: Dec 9, 2016 at 1:30 pm


Visibility: 15 mi

Pressure: 29.10 "Hg

Humidity: 93%

Dew Point: 32 °F

Location of Mount PearlLocation

Past Weather in Mount Pearl — Graph

°F

Mount Pearl Temperature Yesterday

Maximum temperature yesterday: 34 °F (at 11:30 pm)
Minimum temperature yesterday: 19 °F (at 1:30 am)
Average temperature yesterday: 26 °F

High & Low Weather Summary for the Past Weeks

 TemperatureHumidityPressure
High48 °F (Nov 27, 11:30 pm)100% (Nov 24, 1:30 pm)30.32 "Hg (Nov 24, 1:30 pm)
Low19 °F (Dec 7, 7:30 am)54% (Dec 5, 2:30 pm)28.97 "Hg (Dec 9, 8:30 am)
Average31 °F83%29.78 "Hg
* Reported Nov 24 12:30 pm — Dec 9 12:30 pm, Mount Pearl, Weather by CustomWeather, © 2016

Note: Actual official high and low records may vary slightly from our data, if they occured in-between our weather recording intervals... More about our weather records

Advertising

Mount Pearl Weather History for the Previous 24 Hours

Scroll right to see more
 ConditionsComfort  
Time TempWeatherWind HumidityBarometerVisibility
12:30 pm
Fri, Dec 9
34 °FPartly sunny.28 mph93%29.08 "Hg15 mi
11:30 am32 °FLight snow. Ice fog.23 mph100%29.08 "Hg5 mi
11:18 am32 °FLight snow. Ice fog.21 mph100%29.09 "Hg5 mi
10:30 am32 °FChilly.22 mph100%29.04 "Hg1 mi
9:30 am32 °FLight snow. Ice fog.18 mph100%29.01 "Hg1 mi
8:30 am32 °FChilly.17 mph100%28.97 "Hg1 mi
7:30 am32 °FLight snow. Fog.22 mph100%29.02 "Hg1 mi
7:24 am32 °FLight snow. Fog.26 mph100%29.02 "Hg1 mi
6:30 am32 °FLight snow. Low clouds.10 mph93%29.18 "Hg1 mi
5:30 am32 °FLight snow. Low clouds.12 mph100%29.28 "Hg1 mi
4:30 am36 °FLight rain. Low clouds.15 mph93%29.41 "Hg12 mi
3:30 am36 °FLight rain. Mostly cloudy.9 mph93%29.46 "Hg15 mi
2:30 am36 °FMostly cloudy.7 mph87%29.54 "Hg15 mi
1:30 am34 °FOvercast.9 mph93%29.60 "Hg15 mi
12:30 am32 °FOvercast.7 mph93%29.64 "Hg15 mi
11:30 pm
Thu, Dec 8
34 °FOvercast.9 mph93%29.68 "Hg15 mi
10:30 pm32 °FPassing clouds.13 mph93%29.71 "Hg15 mi
9:30 pm30 °FPassing clouds.10 mph93%29.75 "Hg15 mi
8:30 pm32 °FOvercast.10 mph87%29.78 "Hg15 mi
7:30 pm30 °FOvercast.9 mph86%29.80 "Hg15 mi
6:30 pm30 °FMostly cloudy.6 mph86%29.82 "Hg15 mi
5:30 pm30 °FOvercast.8 mph86%29.83 "Hg15 mi
4:30 pm30 °FOvercast.9 mph80%29.84 "Hg15 mi
3:30 pm30 °FPartly sunny.12 mph80%29.84 "Hg15 mi
2:30 pm28 °FPartly sunny.10 mph80%29.84 "Hg15 mi
Weather by CustomWeather, © 2016

See weather overviewHow to use our weather pages